Weather History for Anchorage Merrill, AK

Change the Weather History Date:

Friday, July 12, 2013

  Actual Average Record
Temperature  
Mean Temperature 68 °F -  
Max Temperature 79 °F 66 °F 80 °F (1993)
Min Temperature 57 °F 52 °F 50 °F (2012)
Cooling Degree Days 2    
Growing Degree Days 18 (Base 50)    
Moisture  
Dew Point 49 °F    
Average Humidity 55    
Maximum Humidity 81    
Minimum Humidity 35    
Precipitation  
Precipitation 0.00 in - - ()
Sea Level Pressure  
Sea Level Pressure 29.94 in    
Wind  
Wind Speed 3 mph (WNW)    
Max Wind Speed 9 mph    
Max Gust Speed -    
Visibility 10 miles    
Events      
Averages and records for this station are not official NWS values.
T = Trace of Precipitation, MM = Missing Value Source: NWS Daily Summary

Daily Weather History Graph

Daily Weather History Graph

Search for Another Location

Airport:

Trip Planner

Search our weather history database for the weather conditions in past years. The results will help you decide how hot, cold, wet, or windy it might be!

Date:

Astronomy

Jul. 12, 2013 Rise Set
Actual Time 4:45 AM AKDT 11:23 PM AKDT
Civil Twilight 3:05 AM AKDT 1:00 AM AKDT
Nautical Twilight Sun does not rise Sun does not rise
Astronomical Twilight Sun does not rise Sun does not rise
Moon 10:54 AM AKDT (7/12) 11:48 PM AKDT (7/12)
Length of Visible Light 21h 55m
Length of Day
18h 37m
Waxing Crescent, 18% of the Moon is Illuminated
Jul 12
Waxing Crescent
Jul 15
First Quarter
Jul 22
Full
Jul 29
Last Quarter
Aug 6
New

Hourly Weather History & Observations

Time (AKDT) Temp. Dew Point Humidity Pressure Visibility Wind Dir Wind Speed Gust Speed Precip Events Conditions
12:53 AM 63.0 °F 48.9 °F 60% 29.93 in 10.0 mi Calm Calm - N/A   Scattered Clouds
1:53 AM 63.0 °F 51.1 °F 65% 29.94 in 10.0 mi Calm Calm - N/A   Scattered Clouds
2:53 AM 57.9 °F 52.0 °F 81% 29.95 in 10.0 mi Calm Calm - N/A   Scattered Clouds
3:53 AM 57.0 °F 51.1 °F 81% 29.95 in 10.0 mi East 3.5 mph - N/A   Scattered Clouds
4:53 AM 57.0 °F 51.1 °F 81% 29.95 in 10.0 mi Calm Calm - N/A   Scattered Clouds
5:53 AM 57.0 °F 48.9 °F 74% 29.96 in 10.0 mi Calm Calm - N/A   Partly Cloudy
6:53 AM 57.9 °F 48.9 °F 72% 29.96 in 10.0 mi Calm Calm - N/A   Partly Cloudy
7:53 AM 60.1 °F 48.9 °F 67% 29.96 in 10.0 mi Calm Calm - N/A   Overcast
8:53 AM 66.0 °F 50.0 °F 56% 29.97 in 10.0 mi Calm Calm - N/A   Clear
9:53 AM 66.9 °F 51.1 °F 57% 29.96 in 10.0 mi NW 5.8 mph - N/A   Scattered Clouds
10:53 AM 68.0 °F 52.0 °F 56% 29.96 in 10.0 mi West 5.8 mph - N/A   Mostly Cloudy
11:53 AM 72.0 °F 51.1 °F 48% 29.96 in 10.0 mi West 6.9 mph - N/A   Clear
12:53 PM 73.0 °F 50.0 °F 44% 29.95 in 10.0 mi WNW 6.9 mph - N/A   Mostly Cloudy
1:53 PM 73.9 °F 50.0 °F 43% 29.94 in 10.0 mi WNW 6.9 mph - N/A   Scattered Clouds
2:53 PM 75.0 °F 48.9 °F 40% 29.93 in 10.0 mi NW 8.1 mph - N/A   Scattered Clouds
3:53 PM 75.9 °F 48.9 °F 38% 29.92 in 10.0 mi NW 6.9 mph - N/A   Scattered Clouds
4:53 PM 78.1 °F 48.0 °F 35% 29.91 in 10.0 mi Variable 5.8 mph - N/A   Scattered Clouds
5:53 PM 75.9 °F 46.9 °F 36% 29.91 in 10.0 mi West 6.9 mph - N/A   Scattered Clouds
6:53 PM 73.0 °F 46.0 °F 38% 29.91 in 10.0 mi West 9.2 mph - N/A   Clear
7:53 PM 73.0 °F 45.0 °F 37% 29.90 in 10.0 mi West 8.1 mph - N/A   Clear
8:53 PM 69.1 °F 48.9 °F 49% 29.91 in 10.0 mi NW 4.6 mph - N/A   Clear
9:53 PM 66.9 °F 52.0 °F 59% 29.92 in 10.0 mi NNW 5.8 mph - N/A   Clear
10:53 PM 66.9 °F 48.0 °F 51% 29.93 in 10.0 mi South 4.6 mph - N/A   Clear
11:53 PM 68.0 °F 50.0 °F 52% 29.95 in 10.0 mi South 8.1 mph - N/A   Mostly Cloudy